Location: Newark
(48.9886°N, 1.2358°E)
Time: 10:18:58
(UTC+00:00)

Transit 4A - Pass Details

Date: 22 November 2019
Orbit: 870 x 975 km, 66.8° (Epoch: 05 December)

Event Time Altitude Azimuth Distance (km) Brightness Sun altitude
Exits shadow 04:02:58 23° 2° (N) 1,792 9.4 -31.0°
Maximum altitude 04:05:00 28° 34° (NE) 1,594 9.4 -30.6°
Drops below altitude 10° 04:10:00 10° 93° (E) 2,530 11.1 -29.8°
Sets 04:12:49 0° 105° (ESE) 3,458 12.0 -29.4°
